Flag for Germany Weather past 2 weeks in Jena, Thuringia, Germany

43 °F

Light rain. Mostly cloudy.

Feels Like: 36 °F
Forecast: 44 / 51 °F
Wind: 13 mph from West

Location: Erfurt-Bindersleben

Current Time: Nov 30, 2015 at 2:58:51 PM

Latest Report: Nov 30, 2015 at 2:20 PM

Visibility: N/A

Pressure: 29.98 "Hg

Humidity: 81%

Dew point: 37 °F

Location of JenaLocation

Historic Weather in Jena — Graph


Jena temperature yesterday

Maximum temperature yesterday: 50 °F (at 10:50 PM)
Minimum temperature yesterday: 36 °F (at 12:20 AM)
Average temperature yesterday: 42 °F

Past Weeks' High & Low Weather Summary

High57 °F (Nov 17, 1:20 PM)100% (Nov 21, 10:20 PM)30.24 "Hg (Nov 21, 10:20 PM)
Low23 °F (Nov 27, 6:50 AM)58% (Nov 18, 11:50 AM)29.39 "Hg (Nov 21, 4:50 AM)
Average41 °F83%29.83 "Hg
* Reported Nov 15 1:20 PM — Nov 30 1:20 PM, Jena, Weather by CustomWeather, © 2015

Note: Actual official high and low records may vary slightly from our data, if they occured in-between our weather recording intervals... More about our weather records


Jena weather history for previous 24 hours

Time TempWeatherWind HumidityBarometerVisibility
1:20 PM
Mon, Nov 30
45 °FLight rain. Overcast.16 mph71%30.01 "HgN/A
12:50 PM45 °FMore clouds than sun.17 mph71%30.01 "HgN/A
12:20 PM45 °FBroken clouds.15 mph71%30.04 "HgN/A
11:50 AM45 °FPartly sunny.17 mph71%30.04 "HgN/A
11:20 AM43 °FBroken clouds.21 mph76%30.04 "HgN/A
10:50 AM43 °FBroken clouds.24 mph76%30.04 "HgN/A
10:20 AM43 °FBroken clouds.20 mph76%30.01 "HgN/A
9:50 AM43 °FBroken clouds.21 mph76%30.01 "HgN/A
9:20 AM43 °FBroken clouds.22 mph76%30.01 "HgN/A
7:50 AM43 °FSprinkles. Partly cloudy.26 mph76%29.98 "HgN/A
7:20 AM45 °FPassing clouds.17 mph81%29.95 "HgN/A
6:20 AM45 °FPassing clouds.18 mph81%29.92 "HgN/A
5:50 AM45 °FPartly cloudy.16 mph81%29.89 "HgN/A
5:20 AM46 °FLight rain. Partly cloudy.25 mph76%29.89 "HgN/A
4:20 AM45 °FPartly cloudy.20 mph81%29.86 "HgN/A
3:50 AM45 °FClear.23 mph81%29.86 "Hg10 mi
3:20 AM46 °FPassing clouds.29 mph71%29.83 "HgN/A
1:20 AM45 °FRain. Partly cloudy.25 mph93%29.80 "HgN/A
12:50 AM48 °FLight rain. Passing clouds.36 mph82%29.74 "HgN/A
11:50 PM
Sun, Nov 29
50 °FPassing clouds.33 mph76%29.71 "HgN/A
11:20 PM50 °FPassing clouds.35 mph71%29.68 "HgN/A
10:50 PM50 °FPassing clouds.32 mph71%29.68 "HgN/A
10:20 PM48 °FPassing clouds.32 mph76%29.71 "HgN/A
9:50 PM48 °FLight rain. Partly cloudy.32 mph76%29.71 "HgN/A
9:20 PM48 °FLight rain. Partly cloudy.29 mph76%29.74 "HgN/A
8:50 PM48 °FPartly cloudy.31 mph76%29.74 "HgN/A
8:20 PM48 °FLight rain. Passing clouds.29 mph82%29.74 "HgN/A
7:50 PM48 °FLight rain. Passing clouds.33 mph82%29.77 "HgN/A
7:20 PM48 °FLight rain. Passing clouds.28 mph82%29.77 "HgN/A
6:50 PM46 °FLight rain. Passing clouds.26 mph87%29.77 "HgN/A
6:20 PM46 °FLight rain. Passing clouds.25 mph87%29.77 "HgN/A
5:50 PM46 °FLight rain. Passing clouds.29 mph82%29.77 "HgN/A
5:20 PM46 °FPassing clouds.24 mph82%29.77 "HgN/A
4:50 PM45 °FLight rain. Passing clouds.23 mph81%29.77 "HgN/A
4:20 PM46 °FLight rain. Partly cloudy.23 mph82%29.77 "HgN/A
3:50 PM46 °FBroken clouds.24 mph76%29.77 "HgN/A
3:20 PM45 °FPartly sunny.17 mph81%29.80 "HgN/A
2:50 PM45 °FPartly sunny.17 mph81%29.80 "HgN/A
2:20 PM45 °FPartly sunny.20 mph81%29.80 "HgN/A
Weather by CustomWeather, © 2015

See weather overviewHow to use our weather pages